Morrisville, VT

5:26 PM EDT on September 26, 2016 (GMT -0400)
Morrisville Stowe State

Weather History for KMVL - January, 2013

Change the Weather History Date:

Sunday, January 27, 2013

  Actual Average Record
Temperature  
Mean Temperature 7 °F 15 °F  
Max Temperature 16 °F 27 °F 48 °F (2002)
Min Temperature -3 °F 4 °F -20 °F (1998)
Degree Days  
Heating Degree Days 58 50  
Month to date heating degree days 1316 1328  
Since 1 July heating degree days 4160 4466  
Cooling Degree Days 0 0  
Month to date cooling degree days 0 0  
Year to date cooling degree days 0 0  
Moisture  
Dew Point -4 °F    
Average Humidity 58    
Maximum Humidity 79    
Minimum Humidity 36    
Precipitation  
Precipitation 0.00 in 0.08 in 0.35 in (2012)
Month to date precipitation 0.49 2.24  
Year to date precipitation 0.49 2.24  
Sea Level Pressure  
Sea Level Pressure 30.44 in    
Wind  
Wind Speed 5 mph (North)    
Max Wind Speed 14 mph    
Max Gust Speed 20 mph    
Visibility 10 miles    
Events      
T = Trace of Precipitation, MM = Missing Value Source: NWS Daily Summary

Daily Weather History Graph

Daily Weather History Graph

Search for Another Location

Airport or City:

Trip Planner

Search our weather history database for the weather conditions in past years. The results will help you decide how hot, cold, wet, or windy it might be!

Date:

Astronomy

Jan. 27, 2013 Rise Set
Actual Time 7:14 AM EST 4:52 PM EST
Civil Twilight 6:42 AM EST 5:24 PM EST
Nautical Twilight 6:07 AM EST 5:59 PM EST
Astronomical Twilight 5:33 AM EST 6:33 PM EST
Moon 5:48 PM EST (1/27) 7:02 AM EST (1/27)
Length of Visible Light 10h 41m
Length of Day
9h 38m
Full, 100% of the Moon is Illuminated
Jan 27
Full
Feb 3
Last Quarter
Feb 10
New
Feb 17
First Quarter
Feb 25
Full

Hourly Weather History & Observations

Time (EST) Temp. Windchill Dew Point Humidity Pressure Visibility Wind Dir Wind Speed Gust Speed Precip Events Conditions
12:06 AM 10.4 °F -1.5 °F 1.4 °F 67% 30.25 in 10.0 mi NW 8.1 mph - N/A   Scattered Clouds
12:54 AM 10.0 °F -2.9 °F 1.0 °F 67% 30.32 in 10.0 mi NNW 9.2 mph - N/A   Clear
1:37 AM 8.6 °F -2.6 °F -0.4 °F 67% 30.28 in 10.0 mi NNW 6.9 mph - N/A   Mostly Cloudy
1:54 AM 9.0 °F -4.2 °F -0.0 °F 67% 30.34 in 10.0 mi NW 9.2 mph - N/A   Scattered Clouds
2:29 AM 6.8 °F - -0.4 °F 72% 30.30 in 10.0 mi Calm Calm - N/A   Mostly Cloudy
2:54 AM 8.1 °F -4.3 °F -0.0 °F 70% 30.37 in 10.0 mi NW 8.1 mph - N/A   Overcast
3:54 AM 8.1 °F -2.0 °F -0.9 °F 67% 30.38 in 10.0 mi NNW 5.8 mph - N/A   Overcast
4:54 AM 7.0 °F -1.7 °F -2.0 °F 67% 30.39 in 10.0 mi Variable 4.6 mph - N/A   Overcast
5:13 AM 6.8 °F -5.9 °F -2.2 °F 67% 30.34 in 10.0 mi North 8.1 mph - N/A   Scattered Clouds
5:54 AM 5.0 °F -4.1 °F -4.0 °F 66% 30.41 in 10.0 mi North 4.6 mph - N/A   Partly Cloudy
6:54 AM 3.9 °F -3.4 °F -5.1 °F 66% 30.44 in 10.0 mi NNE 3.5 mph - N/A   Clear
7:54 AM 3.9 °F -3.4 °F -5.1 °F 66% 30.47 in 10.0 mi North 3.5 mph - N/A   Clear
8:54 AM 6.1 °F -5.6 °F -5.1 °F 60% 30.48 in 10.0 mi North 6.9 mph - N/A   Clear
9:54 AM 8.1 °F -6.2 °F -4.0 °F 58% 30.50 in 10.0 mi North 10.4 mph - N/A   Clear
10:54 AM 9.0 °F -4.2 °F -4.0 °F 56% 30.50 in 10.0 mi NNE 9.2 mph - N/A   Clear
11:54 AM 10.9 °F -1.8 °F -4.0 °F 51% 30.49 in 10.0 mi North 9.2 mph - N/A   Clear
1:54 PM 14.0 °F 2.0 °F -6.0 °F 41% 30.48 in 10.0 mi NNE 9.2 mph - N/A   Clear
3:54 PM 14.0 °F 2.9 °F -9.0 °F 35% 30.50 in 10.0 mi North 8.1 mph - N/A   Clear
5:54 PM 8.1 °F - -8.0 °F 48% 30.53 in 10.0 mi Calm Calm - N/A   Clear
6:54 PM 3.9 °F - -7.1 °F 60% 30.53 in 10.0 mi Calm Calm - N/A   Clear
7:54 PM 1.9 °F - -8.0 °F 63% 30.53 in 10.0 mi Calm Calm - N/A   Clear
8:54 PM -0.0 °F - -9.0 °F 66% 30.52 in 10.0 mi Calm Calm - N/A   Clear
9:54 PM -0.9 °F - -9.0 °F 69% 30.51 in 10.0 mi Calm Calm - N/A   Clear
10:54 PM -2.0 °F - -8.0 °F 76% 30.51 in 10.0 mi Calm Calm - N/A   Clear
11:54 PM -0.9 °F - -7.1 °F 75% 30.51 in 10.0 mi Calm Calm - N/A   Mostly Cloudy